Flag for Germany Weather past 2 weeks in Saarbrücken, Saarland, Germany

48 °F


Feels Like: 48 °F
Forecast: 48 / 58 °F
Wind: 2 mph from North

Location: Saarbruecken / Ensheim

Current Time: Oct 9, 2015 at 4:07:00 AM

Latest Report: Oct 9, 2015 at 3:20 AM

Visibility: 10 mi

Pressure: 30.15 "Hg

Humidity: 94%

Dew point: 46 °F

Location of SaarbrückenLocation

Historic Weather in Saarbrücken — Graph


Saarbrücken temperature yesterday

Maximum temperature yesterday: 55 °F (at 12:20 PM)
Minimum temperature yesterday: 46 °F (at 1:50 AM)
Average temperature yesterday: 51 °F

Past Weeks' High & Low Weather Summary

High68 °F (Oct 3, 4:20 PM)100% (Sep 24, 2:50 AM)30.54 "Hg (Sep 24, 2:50 AM)
Low43 °F (Oct 1, 7:50 AM)37% (Sep 29, 3:20 PM)29.68 "Hg (Oct 6, 8:20 AM)
Average54 °F74%30.16 "Hg
* Reported Sep 24 2:20 AM — Oct 9 2:50 AM, Saarbrücken, Weather by CustomWeather, © 2015

Note: Actual official high and low records may vary slightly from our data, if they occured in-between our weather recording intervals... More about our weather records


Saarbrücken weather history for previous 24 hours

Time TempWeatherWind HumidityBarometerVisibility
2:50 AM
Fri, Oct 9
50 °FClear.1 mph88%30.15 "Hg10 mi
2:20 AM50 °FClear.1 mph94%30.15 "Hg10 mi
1:50 AM50 °FCool.2 mph94%30.15 "Hg3 mi
1:20 AM50 °FCool.2 mph94%30.15 "Hg3 mi
12:50 AM50 °FClear.2 mph94%30.15 "Hg10 mi
12:20 AM50 °FClear.3 mph94%30.18 "Hg10 mi
11:20 PM
Thu, Oct 8
50 °FClear.2 mph94%30.18 "Hg10 mi
10:50 PM50 °FClear.2 mph94%30.18 "Hg10 mi
10:20 PM50 °FPassing clouds.3 mph94%30.18 "HgN/A
9:50 PM50 °FClear.1 mph94%30.15 "Hg10 mi
9:20 PM50 °FClear.1 mph88%30.15 "Hg10 mi
8:50 PM52 °FClear.1 mph82%30.15 "Hg10 mi
8:20 PM52 °FPassing clouds.1 mph88%30.15 "HgN/A
7:50 PM52 °FPartly sunny.2 mph88%30.15 "HgN/A
7:20 PM52 °FPartly sunny.2 mph82%30.15 "HgN/A
6:50 PM54 °FPartly sunny.2 mph77%30.15 "HgN/A
6:20 PM54 °FPartly sunny.2 mph82%30.15 "HgN/A
5:50 PM54 °FPartly sunny.5 mph77%30.15 "HgN/A
5:20 PM54 °FPartly sunny.3 mph77%30.15 "HgN/A
4:50 PM54 °FPartly sunny.2 mph77%30.15 "HgN/A
4:20 PM55 °FPartly sunny.6 mph72%30.15 "HgN/A
3:50 PM55 °FPartly sunny.3 mph72%30.15 "HgN/A
3:20 PM55 °FPartly sunny.5 mph72%30.15 "HgN/A
2:50 PM55 °FBroken clouds.6 mph77%30.15 "HgN/A
2:20 PM55 °FBroken clouds.6 mph77%30.15 "HgN/A
1:50 PM55 °FBroken clouds.3 mph72%30.15 "HgN/A
1:20 PM55 °FBroken clouds.5 mph77%30.15 "HgN/A
12:50 PM55 °FBroken clouds.3 mph77%30.15 "HgN/A
12:20 PM55 °FBroken clouds.3 mph77%30.15 "HgN/A
11:50 AM54 °FPartly sunny.3 mph82%30.12 "HgN/A
11:20 AM54 °FPartly sunny.3 mph88%30.12 "HgN/A
10:50 AM52 °FPartly sunny.3 mph94%30.12 "HgN/A
10:20 AM52 °FPartly sunny.2 mph94%30.12 "HgN/A
9:50 AM50 °FPartly sunny.1 mph94%30.12 "HgN/A
9:20 AM50 °FPartly sunny.1 mph94%30.12 "Hg5 mi
8:50 AM48 °FPartly sunny.1 mph100%30.09 "Hg5 mi
8:20 AM48 °FPassing clouds.2 mph94%30.09 "Hg6 mi
7:50 AM48 °FPassing clouds.3 mph94%30.09 "Hg6 mi
7:20 AM48 °FPassing clouds.3 mph94%30.09 "Hg5 mi
6:50 AM48 °FPassing clouds.3 mph94%30.09 "Hg5 mi
5:20 AM48 °FPassing clouds.2 mph94%30.07 "Hg5 mi
4:50 AM48 °FPassing clouds.2 mph94%30.07 "HgN/A
4:20 AM48 °FPassing clouds.2 mph94%30.07 "HgN/A
Weather by CustomWeather, © 2015

See weather overviewHow to use our weather pages